Welcome to the New NWS' Forecast!
Most changes are behind the scenes, but click here for differences you might notice.
Latest weather observations around

Mountain Home, Baxter County Regional Airport (KBPK)

Using English Units (Switch to International System of Units)
Date/ Time (CDT) Wind (mph) Vis. (mi) Weather Sky Cond. Temp (°F) Rel. Humidity Wind Chill (°F) Heat Index (°F) Pressure Precip. (in)
Air Dwpt 6 hour Altimeter (inHg) Sea level (inHg) 1 hr 3 hr 6 hr
Max Min
May 24 21:53 3 10 Clear CLR 54 50     86%     29.68 29.67      
May 24 20:53 Calm 10 Clear CLR 54 51     90%     29.67 29.66      
May 24 19:53 NNW 6 10 Clear CLR 56 50     80%     29.66 29.65      
May 24 18:53 5 10 Mostly Clear FEW075 58 50     75%     29.65 29.64 0   0
May 24 17:53 WNW 9 10 Cloudy FEW031 BKN050 OVC075 57 49     74%     29.65 29.64      
May 24 16:53 7 10 Mostly Cloudy FEW050 BKN060 60 50     69%     29.64 29.63 0    
May 24 15:53 3 5 Light Rain SCT041 BKN049 OVC060 56 51     84%     29.65 29.64 0 0  
May 24 13:53 7 10 Cloudy FEW039 BKN070 OVC080 60 46     60%     29.65 29.64      
May 24 12:53 6 10 Cloudy OVC070 63 46     54%     29.65 29.63     0
May 24 09:53 7 10 Partly Cloudy FEW023 FEW060 SCT080 60 51     72%     29.66 29.64      
May 24 08:53 N 7 10 Mostly Cloudy FEW016 SCT055 BKN070 56 51     84%     29.66 29.65      
May 24 07:53 3 10 Cloudy OVC065 54 50     86%     29.67 29.65      
May 24 06:53 NNW 3 10 Cloudy BKN048 OVC060 54 50     86%     29.66 29.64      
May 24 05:53 N 5 10 Cloudy FEW044 SCT055 OVC080 53 50     89%     29.65 29.64      
May 24 04:53 N 5 10 Mostly Cloudy BKN070 52 50     93%     29.65 29.64      
May 24 03:53 NNW 3 10 Clear CLR 53 50     89%     29.67 29.65      
May 24 01:53 Calm 10 Clear CLR 54 51     90%     29.7 29.68      
May 24 00:53 Calm 10 Mostly Clear FEW110 53 53     100%     29.71 29.69     0
May 23 23:53 Calm 10 Clear CLR 54 54     100%     29.73 29.71      
May 23 22:53 Calm 10 Clear CLR 55 54     96%     29.75 29.73      
May 23 21:53 Calm 10 Clear CLR 58 55     90%     29.76 29.74   0  
May 23 20:53 Calm 10 Cloudy OVC085 60 56     86%     29.75 29.73      
May 23 19:53 3 10 Cloudy FEW031 FEW040 OVC080 61 56     83%     29.74 29.72 0    
May 23 18:53 7 10 Light Rain FEW030 OVC080 63 55     75%     29.74 29.72 0   0
May 23 17:53 5 10 Cloudy OVC085 64 57     78%     29.73 29.72 0    
May 23 16:53 WNW 5 9 Light Rain FEW065 OVC090 63 58     84%     29.74 29.72 0    
May 23 15:53 6 10 Mostly Cloudy SCT045 SCT085 BKN120 71 54     55%   70 29.73 29.71   0  
May 23 14:53 5 10 Mostly Cloudy FEW040 BKN070 BKN110 72 56     57%   72 29.74 29.72 0    
May 23 13:53 3 9 Light Rain FEW046 BKN060 BKN100 69 56     63%     29.76 29.74 0    
May 23 12:53 WNW 3 10 Mostly Clear FEW033 71 57     61%   71 29.78 29.76     0
May 23 11:53 N 8 10 Partly Cloudy FEW028 SCT065 70 57     63%     29.79 29.77      
May 23 11:06 5 10 Mostly Cloudy FEW018 BKN022 BKN035 66 59     78%     29.8        
May 23 10:53 5 10 Partly Cloudy SCT018 SCT024 68 60     76%     29.8 29.78      
May 23 10:22   10 Mostly Cloudy SCT015 BKN021 BKN041 66 60     81%     29.8        
May 23 09:53 Calm 10 Mostly Clear FEW110 64 60     87%     29.81 29.79   0  
May 23 08:53 Calm 10 Cloudy OVC055 59 57     93%     29.83 29.81 0    
May 23 08:39 Calm 9 Light Rain BKN049 OVC060 59 57     93%     29.82   0    
May 23 08:31 Calm 2 Rain and Fog/Mist OVC049 59 56     90%     29.82   0    
May 23 07:53 Calm 10 Cloudy SCT042 OVC055 60 55     83%     29.82 29.8 0    
May 23 06:53 Calm 10 Cloudy BKN075 OVC095 59 53     81%     29.83 29.81      
May 23 05:53 Calm 10 Cloudy BKN090 OVC100 58 51     78%     29.83 29.81      
May 23 04:53 Calm 10 Cloudy OVC085 58 52     81%     29.84 29.81      
May 23 03:53 Calm 10 Cloudy OVC100 59 51     75%     29.84 29.82      
May 23 02:53 SW 3 10 Cloudy BKN090 OVC110 60 51     72%     29.86 29.83      
May 23 01:53 Calm 10 Cloudy OVC100 59 53     81%     29.88 29.86      
May 23 00:53 SSW 5 10 Mostly Cloudy BKN095 57 53     87%     29.89 29.88      
May 22 23:53 S 5 10 Clear CLR 59 53     81%     29.92 29.9      
May 22 22:53 SSW 5 10 Clear CLR 60 52     75%     29.94 29.92      
May 22 21:53 SSE 5 10 Clear CLR 64 51     63%     29.93 29.91      
May 22 20:53 Calm 10 Clear CLR 63 51     65%     29.94 29.93      
May 22 19:53 SE 5 10 Clear CLR 65 54     68%     29.94 29.93      
May 22 18:53 S 6 10 Mostly Clear FEW120 72 50     46%   71 29.94 29.93      
May 22 17:53 SSE 3 10 Mostly Clear FEW110 73 48     41%   72 29.96 29.94      
May 22 16:53 S 5 10 Clear CLR 72 45     38%   71 29.98 29.96      
May 22 15:53 5 10 Clear CLR 73 45     37%   72 30 29.98      
May 22 14:53 5 10 Clear CLR 73 47     39%   72 30.03 30.01      
May 22 13:53 6 10 Clear CLR 72 48     43%   71 30.06 30.04      
May 22 12:53 S 8 10 Clear CLR 70 46     42%     30.09 30.07      
May 22 11:53 7 10 Clear CLR 69 48     47%     30.11 30.1      
May 22 10:53 S 8 10 Clear CLR 66 49     54%     30.14 30.12      
May 22 09:53 SSW 6 10 Clear CLR 61 50     67%     30.14 30.13      
May 22 08:53 SW 5 10 Clear CLR 57 53     87%     30.15 30.14      
May 22 06:53 Calm 10 Clear CLR 52 50     93%     30.15 30.13      
May 22 05:53 Calm 10 Clear CLR 52 49     89%     30.14 30.12      
May 22 04:53 Calm 10 Clear CLR 52 50     93%     30.14 30.12      
May 22 03:53 Calm 10 Clear CLR 53 50     89%     30.13 30.11      
May 22 02:53 Calm 10 Clear CLR 53 49     86%     30.13 30.11      
May 22 01:53 Calm 10 Clear CLR 53 50     89%     30.15 30.13      
May 22 00:53 Calm 10 Clear CLR 55 47     74%     30.15 30.14      
May 21 23:53 Calm 10 Clear CLR 55 49     80%     30.16 30.15      
May 21 22:53 Calm 10 Clear CLR 58 47     67%     30.15 30.14      
May 21 21:53 Calm 10 Clear CLR 57 49     74%     30.14 30.13      
May 21 20:53 Calm 10 Clear CLR 58 53     84%     30.13 30.11      
May 21 19:53 Calm 10 Clear CLR 62 51     67%     30.12 30.11      
May 21 18:53 Calm 10 Clear CLR 68 45     43%     30.13 30.11      
May 21 17:53 7 10 Clear CLR 71 43     36%   70 30.1 30.09      
May 21 16:53 N 8 10 Clear CLR 71 42     35%   70 30.09 30.07      
May 21 15:53 N 6 10 Clear CLR 71 44     38%   70 30.12 30.11      
May 21 14:53 6 10 Clear CLR 70 44     39%     30.14 30.12      
May 21 13:53 3 10 Clear CLR 69 45     42%     30.15 30.13      
May 21 12:53 N 8 10 Clear CLR 66 46     48%     30.15 30.13      
May 21 10:53 NW 8 10 Clear CLR 61 46     58%     30.15 30.14      
May 21 09:53 6 10 Clear CLR 61 50     67%     30.13 30.11      
May 21 08:53 7 10 Clear CLR 59 49     69%     30.12 30.1      
May 21 07:53 6 10 Clear CLR 58 52     81%     30.11 30.1      
May 21 06:53 Calm 10 Clear CLR 54 52     93%     30.11 30.09      
May 21 05:53 Calm 10 Clear CLR 52 51     97%     30.09 30.07      
May 21 04:53 Calm 10 Clear CLR 52 50     93%     30.07 30.06      
May 21 03:53 Calm 10 Clear CLR 55 51     86%     30.06 30.04      
May 21 02:53 N 3 10 Clear CLR 57 54     89%     30.05 30.03      
May 21 00:53   10 Clear CLR 60 58     93%     30.02 30     0
May 20 23:53 3 10 Clear CLR 61 59     93%     30.03 30.01 0    
May 20 22:53 5 10 Partly Cloudy SCT070 SCT080 63 60     90%     30.01 30      
May 20 21:53 Calm 10 Cloudy OVC060 64 62     93%     29.99 29.97   0  
May 20 20:53 5 10 Cloudy FEW031 OVC045 65 63     93%     29.96 29.95 0    
May 20 20:33 3 9 Light Rain FEW017 BKN034 OVC042 66 63     90%     29.96   0    
May 20 19:53 3 10 Cloudy FEW020 OVC027 68 65     90%     29.95 29.93 0    
May 20 19:30 N 7 10 Light Rain FEW012 BKN023 OVC055 69 65     87%     29.94   0    
May 20 19:12 Calm 10 Mostly Cloudy SCT040 SCT047 BKN055 71 65     81%   72 29.93        
May 20 18:53 Calm 10 Cloudy FEW047 OVC075 72 64     76%   72 29.92 29.9      
May 20 16:53 SW 8 10 Clear CLR 75 63     66%   75 29.89 29.86      
May 20 16:36 WSW 10 10 Partly Cloudy SCT030 SCT038 76 63     64%   76 29.89        
May 20 15:53 SSW 7 10 Cloudy BKN025 OVC032 73 65     76%   74 29.9 29.88      
May 20 15:49 S 7 10 Cloudy BKN025 OVC032 73 64     73%   74 29.9        
May 20 15:02 SSW 9 10 Partly Cloudy FEW019 SCT026 SCT033 75 66     74%   76 29.9        
May 20 13:53 SW 9 10 Mostly Cloudy FEW015 BKN023 BKN028 72 65     79%   73 29.92 29.9      
Notice The following observation data may not be complete
May 20 13:29   10 Cloudy SCT016 OVC024          %              
May 20 12:53 S 8 10 Mostly Cloudy BKN012 69 64     84%     29.93 29.91     0
May 20 12:46 SSE 8 10 Mostly Cloudy BKN012 70 65     84%     29.93        
May 20 11:53 S 9 10 Partly Cloudy SCT007 66 63     90%     29.93 29.91      
May 20 11:39 S 11 10 Mostly Clear FEW007 65 62     90%     29.93        
May 20 10:53 SSE 7 10 Partly Cloudy FEW016 SCT100 63 61     93%     29.93 29.91 0    
May 20 09:53 S 10 10 Mostly Cloudy SCT005 BKN095 BKN110 62 61     96%     29.94 29.92 0 0  
May 20 09:51 S 10 10 Mostly Cloudy SCT005 BKN095 BKN110 63 61     94%     29.94   0    
May 20 09:29 S 9 10 Light Rain BKN005 OVC100 62 61     96%     29.95   0    
May 20 08:53 S 9 10 Light Rain BKN004 OVC100 62 61     96%     29.94 29.91 0    
May 20 08:22 S 8 10 Light Rain SCT003 OVC110 61 61     100%     29.92   0    
May 20 07:53 S 6 10 Light Rain FEW090 OVC110 61 60     97%     29.94 29.92 0    
May 20 06:53 Calm 4 Rain and Fog/Mist OVC095 61 61     100%     29.95 29.92 0   1
May 20 05:53 NNW 3 4 Rain and Fog/Mist SCT060 BKN075 OVC100 61 60     97%     29.93 29.9 0    
May 20 04:53 Calm 8 Rain FEW007 BKN070 OVC110 62 61     96%     29.95 29.92 0    
May 20 04:26 N 3 8 Light Rain FEW008 BKN065 OVC095 62 61     96%     29.94   0    
May 20 04:20 NNW 3 5 Rain and Fog/Mist BKN065 BKN075 OVC090 62 61     96%     29.94   0    
May 20 04:05 NNW 5 5 Thunderstorms and Rain and Fog/Mist SCT075 OVC090 62 61     96%     29.93   0    
May 20 03:53 5 6 Rain and Fog/Mist FEW075 OVC090 62 61     96%     29.94 29.91 0 1  
May 20 02:53 3 5 Rain and Fog/Mist FEW009 BKN055 OVC100 62 61     96%     29.9 29.88 0    
May 20 02:38 5 6 Thunderstorms and Rain and Fog/Mist BKN009 OVC048 62 61     96%     29.92   0    
May 20 02:36 3 7 Thunderstorms and Rain SCT010 OVC048 62 61     96%     29.92   0    
May 20 02:29 3 5 Rain and Fog/Mist SCT010 BKN044 OVC075 62 61     96%     29.91   0    
May 20 02:11 5 3 Thunderstorms and Heavy Rain and Fog/Mist FEW007 BKN038 OVC075 62 61     96%     29.9   0    
May 20 01:55 N 8 3 Thunderstorms and Heavy Rain and Fog/Mist FEW004 SCT010 OVC016 62 61     96%     29.87   0    
May 20 01:53 N 10 2 Thunderstorms and Heavy Rain and Fog/Mist FEW004 SCT010 OVC014 62 61     96%     29.87 29.85 1    
May 20 01:42 N 9 0.75 Thunderstorms and Heavy Rain and Fog/Mist FEW004 OVC014 62 61     96%     29.88   1    
May 20 01:35 NNW 15 0.75 Thunderstorms and Heavy Rain and Fog/Mist SCT004 OVC014 63 61     93%     29.87   0    
May 20 01:30   1.75 Thunderstorms and Heavy Rain and Fog/Mist BKN004 BKN014 OVC018 64 63     96%     29.86   0    
May 20 01:23 NW 13 9 Thunderstorms BKN004 OVC016 69 67     93%     29.89        
May 20 01:07 S 9 9 Cloudy OVC004 70 69     97%     29.84        
May 20 01:00 S 9 8 Cloudy OVC004 70 69     97%     29.85        
May 20 00:53 S 9 8 Thunderstorms OVC004 70 69     97%     29.85 29.82 0   0
May 20 00:45 SSE 11 9 Thunderstorms OVC004 70 69     97%     29.85   0    
May 19 23:53 SE 7 9 Cloudy OVC004 70 69     97%     29.88 29.85      
May 19 23:38 SE 9 10 Cloudy OVC004 70 68     93%     29.88        
May 19 23:03 SSE 6 10 Mostly Cloudy BKN007 BKN034 BKN047 70 67     90%     29.91        
May 19 22:53 ESE 6 10 Mostly Cloudy SCT009 BKN039 69 67     93%     29.92 29.89      
May 19 22:50 ESE 5 10 Mostly Cloudy SCT009 SCT031 BKN060 70 66     88%     29.92        
May 19 21:53 ESE 5 10 Clear CLR 70 66     87%     29.9 29.88      
May 19 20:53 SE 11 10 Clear   72 65     79%   73 29.88 29.85      
May 19 19:53 SE 9 10 Mostly Clear FEW034 75 68     79%   76 29.87 29.85      
May 19 18:53 E 9 10 Mostly Cloudy FEW041 BKN100 78 70     76%   79 29.89 29.86      
May 19 17:53 ESE 8 10 Clear CLR 80 69     69%   83 29.88 29.85      
May 19 16:53 SE 6 10 Clear CLR 81 69     67%   84 29.9 29.88      
May 19 15:53 6 10 Mostly Clear FEW028 79 68     69%   80 29.9 29.88      
May 19 15:20 Calm 10 Mostly Cloudy BKN028 BKN033 79 67     67%   80 29.93        
May 19 14:53 S 7 10 Partly Cloudy FEW028 SCT041 79 67     67%   80 29.92 29.9      
May 19 13:53 SE 6 10 Cloudy SCT026 OVC043 76 65     69%   76 29.94 29.91      
Notice The following observation data may not be complete
May 19 13:06   10 Cloudy SCT023 SCT031 OVC039          %              
May 19 12:53 SSE 9 10 Cloudy BKN026 OVC038 75 65     71%   76 29.95 29.93     0
May 19 11:53 S 7 10 Cloudy OVC027 72 63     73%   72 29.97 29.95      
May 19 11:22 S 7 10 Cloudy FEW015 BKN029 OVC033 70 64     81%     29.98        
May 19 11:07 SE 8 10 Mostly Cloudy FEW015 BKN031 70 63     78%     29.98        
May 19 10:00 S 6 10 Mostly Clear FEW009 67 62     84%     29.98        
May 19 09:53 S 7 10 Clear CLR 68 63     84%     29.98 29.95 0 0  
May 19 08:53 Calm 6 Light Rain and Fog/Mist FEW040 BKN048 OVC055 63 62     97%     30.01 29.98 0    
May 19 07:53 Calm 10 Cloudy FEW048 OVC065 63 61     93%     29.97 29.95      
May 19 06:53 E 3 10 Cloudy OVC080 61 60     97%     29.95 29.92     0
May 19 05:53 SSW 5 10 Partly Cloudy SCT090 61 60     97%     29.91 29.88      
May 19 03:26 WSW 5 10 Light Rain FEW050 FEW090 BKN110 62 60     93%     29.96   0    
May 19 03:13 5 10 Light Rain FEW060 SCT085 BKN110 63 60     90%     29.95   0    
May 19 02:53 W 8 5 Thunderstorms and Rain and Fog/Mist FEW055 SCT075 OVC090 63 61     93%     29.96 29.93 0    
May 19 02:27 WNW 8 3 Thunderstorms and Heavy Rain and Fog/Mist FEW019 BKN050 OVC085 64 60     87%     29.96   0    
May 19 01:53 SSW 3 10 Partly Cloudy SCT095 73 67     81%   74 29.87 29.84      
May 19 00:53 S 5 10 Mostly Cloudy BKN100 73 68     84%   74 29.87 29.84      
May 18 23:53 SSE 3 10 Mostly Cloudy BKN048 BKN095 73 68     84%   74 29.9 29.87      
May 18 22:53 Calm 10 Clear CLR 73 68     84%   74 29.9 29.86      
May 18 21:53 SE 6 10 Clear CLR 74 68     82%   75 29.85 29.82      
May 18 19:53 S 6 10 Mostly Clear FEW055 77 68     74%   78 29.84 29.81      
May 18 18:53 SSE 6 10 Partly Cloudy FEW031 FEW041 SCT055 80 69     69%   83 29.84 29.81      
May 18 17:53 SSW 8 10 Clear CLR 82 67     60%   85 29.83 29.8      
May 18 16:53 SSW 9 10 Clear CLR 83 68     61%   86 29.85 29.82      
May 18 15:53 SSW 9 10 Mostly Clear FEW039 83 69     63%   87 29.86 29.83      
May 18 14:53 SSW 6 10 Partly Cloudy FEW036 SCT044 82 68     63%   85 29.87 29.84      
May 18 13:53 SSW 10 10 Mostly Cloudy SCT035 BKN045 81 68     65%   84 29.89 29.86      
May 18 12:53 SSW 11 10 Partly Cloudy SCT032 82 68     63%   85 29.9 29.86      
May 18 12:40 SSW 10 10 Partly Cloudy FEW029 SCT034 81 68     65%   84 29.9        
May 18 12:09 SSW 9 10 Cloudy BKN028 OVC033 79 68     69%   80 29.9        
May 18 11:53 S 9 10 Mostly Cloudy SCT025 BKN033 BKN044 79 68     69%   80 29.9 29.87      
May 18 11:04 SSW 9 10 Mostly Cloudy FEW022 SCT027 BKN035 79 68     69%   80 29.89        
May 18 10:53 S 11 10 Mostly Cloudy SCT022 BKN027 BKN034 78 68     71%   79 29.89 29.86      
May 18 10:36 S 8 10 Mostly Cloudy SCT021 BKN027 BKN038 78 69     74%   79 29.9        
May 18 10:13 SSW 8 10 Cloudy SCT022 BKN030 OVC039 76 68     76%   77 29.9        
May 18 09:53 SSW 10 10 Mostly Cloudy SCT024 BKN029 76 68     76%   77 29.9 29.87      
May 18 09:19 SW 8 10 Mostly Cloudy BKN020 BKN027 75 68     79%   76 29.89        
May 18 08:53 5 10 Mostly Clear FEW016 76 69     79%   77 29.88 29.85      
May 18 07:53 S 6 10 Clear CLR 72 69     91%   73 29.87 29.84      
May 18 06:53 SSE 3 6 Fog/Mist CLR 67 66     97%     29.85 29.83      
May 18 05:53 S 7 8 Clear CLR 67 65     93%     29.83 29.8      
May 18 04:53 SSW 6 9 Clear CLR 67 65     93%     29.83 29.8      
May 18 03:53 SSW 6 8 Clear CLR 66 65     96%     29.82 29.79      
May 18 02:53 SSW 8 10 Clear CLR 67 65     93%     29.82 29.8      
May 18 00:53 SSW 5 10 Clear CLR 68 65     90%     29.82 29.79      
May 17 23:53 SSW 5 10 Clear   69 65     87%     29.82 29.79      
May 17 22:53 SSW 6 10 Clear CLR 70 66     87%     29.81 29.78      
May 17 21:53 SSW 8 10 Clear CLR 71 66     84%   72 29.79 29.77      
May 17 20:53 SW 8 10 Clear CLR 72 65     79%   73 29.77 29.74      
May 17 18:53 SSW 13 10 Mostly Cloudy SCT030 BKN037 75 66     74%   76 29.73 29.71      
May 17 17:53 SSW 15 10 Mostly Cloudy SCT030 BKN039 BKN049 76 65     69%   76 29.74 29.71      
May 17 16:53 SSW 13 10 Partly Cloudy SCT030 78 66     67%   79 29.71 29.68      
May 17 16:17 SSW 18 10 Partly Cloudy SCT026 78 66     67%   79 29.7        
May 17 15:53 SSW 18 10 Mostly Cloudy BKN026 BKN031 77 66     69%   78 29.72 29.69      
May 17 15:38 SSW 15 10 Partly Cloudy SCT028 76 66     71%   77 29.71        
May 17 15:31 SW 15 10 Mostly Cloudy BKN028 76 65     69%   76 29.72        
May 17 15:24   10 Mostly Cloudy FEW025 SCT030 BKN044 75 66     74%   76 29.72        
May 17 14:53 SSW 10 10 Cloudy BKN028 OVC039 74 65     74%   74 29.73 29.7      
May 17 13:53 SW 10 10 Cloudy BKN031 OVC038 73 64     73%   73 29.74 29.71      
May 17 12:53 SSW 9 10 Cloudy OVC028 72 63     73%   72 29.74 29.72      
May 17 12:19 SSW 15 10 Cloudy BKN029 OVC036 73 63     71%   73 29.75        
May 17 12:05 SW 16 10 Cloudy OVC035 73 63     71%   73 29.75        
May 17 11:53 SSW 16 10 Mostly Cloudy BKN029 BKN037 74 63     69%   74 29.74 29.72      
May 17 11:25 SW 14 10 Mostly Cloudy BKN027 72 62     71%   72 29.75        
May 17 10:53 SW 15 10 Mostly Clear FEW024 72 62     71%   72 29.74 29.72      
May 17 09:53 S 15 10 Clear CLR 71 61     70%   71 29.74 29.71      
May 17 08:53 SW 8 10 Mostly Clear FEW035 70 60     71%     29.81 29.78      
May 17 07:53 SW 10 10 Mostly Clear FEW060 69 58     68%     29.8 29.77      
May 17 06:53 SSW 9 10 Partly Cloudy SCT120 68 57     68%     29.78 29.75      
May 17 05:53 SSW 9 10 Mostly Clear FEW042 69 57     65%     29.79 29.75      
May 17 04:53 WSW 10 10 Partly Cloudy SCT035 71 59     66%   71 29.77 29.74      
May 17 03:53 SSW 8 10 Clear CLR 71 59     66%   71 29.71 29.68      
May 17 02:53 SSW 10 10 Clear CLR 71 59     66%   71 29.73 29.7      
May 17 01:53 SSW 9 10 Mostly Clear FEW048 71 60     68%   71 29.74 29.71      
May 17 00:53 SSW 11 10 Clear CLR 72 59     64%   72 29.74 29.71      
May 16 23:53 SSW 10 10 Clear CLR 72 59     64%   72 29.77 29.73      
May 16 22:53 S 7 10 Clear CLR 72 59     64%   72 29.78 29.75      
May 16 21:53 S 8 10 Clear CLR 72 60     66%   72 29.79 29.76      
May 16 20:53 S 8 10 Clear CLR 74 60     62%   74 29.79 29.76      
May 16 19:53 S 8 10 Clear CLR 76 60     58%   76 29.79 29.76      
May 16 18:53 SSW 10 10 Clear CLR 79 60     52%   79 29.8 29.77      
May 16 17:53 SW 13 10 Clear CLR 81 59     47%   81 29.82 29.79      
May 16 16:53 S 9 10 Clear CLR 82 58     44%   82 29.83 29.8      
May 16 15:53 SSW 13 10 Clear CLR 82 56     41%   82 29.85 29.83      
May 16 14:53 SSW 13 10 Clear CLR 82 60     47%   82 29.87 29.84      
May 16 13:53 S 16 10 Clear CLR 81 59     47%   81 29.89 29.86      
May 16 12:53 WSW 13 10 Clear CLR 81 60     49%   82 29.9 29.88      
May 16 11:53 SSW 14 10 Clear CLR 80 57     45%   80 29.93 29.9      
May 16 10:53 WSW 14 10 Clear CLR 77 56     48%   77 29.94 29.91      
May 16 08:53 SSW 7 10 Clear CLR 72 61     68%   72 29.94 29.92      
May 16 07:53 S 6 10 Clear CLR 68 60     76%     29.93 29.91      
May 16 06:53 SSE 5 10 Clear CLR 62 58     86%     29.92 29.9      
May 16 05:53 S 5 10 Clear CLR 61 57     87%     29.91 29.88      
May 16 04:53 SSE 3 10 Clear CLR 63 58     84%     29.9 29.88      
May 16 03:53 SSE 3 10 Clear CLR 60 57     90%     29.91 29.89      
May 16 02:53 Calm 10 Clear CLR 64 58     81%     29.91 29.88      
May 16 01:53 SSE 3 10 Clear CLR 64 58     81%     29.91 29.88      
May 16 00:53 SE 5 10 Clear CLR 66 58     75%     29.91 29.88      
May 15 23:53 SSW 5 10 Clear CLR 67 58     73%     29.91 29.88      
May 15 22:53 S 6 10 Clear CLR 68 58     70%     29.91 29.88      
May 15 21:53 S 5 10 Clear CLR 70 59     68%     29.92 29.89      
May 15 20:53 S 7 10 Clear CLR 72 60     66%   72 29.91 29.88      
May 15 19:53 S 5 10 Clear CLR 75 60     60%   75 29.91 29.89      
May 15 18:53 SSW 8 10 Clear   79 61     54%   79 29.91 29.89      
May 15 17:53 SSW 8 10 Clear CLR 81 59     47%   81 29.91 29.88      
May 15 16:53 SSW 7 10 Clear CLR 83 60     46%   83 29.92 29.89      
May 15 15:53 S 7 10 Clear CLR 82 57     43%   82 29.93 29.9      
May 15 14:53 S 8 10 Clear CLR 81 59     47%   81 29.94 29.91      
May 15 13:53 3 10 Clear CLR 80 60     51%   81 29.96 29.93      
May 15 12:53 S 7 10 Clear CLR 79 60     52%   79 29.99 29.96      
May 15 11:53 SW 8 10 Clear CLR 76 59     56%   76 30 29.97      
May 15 10:53 SW 10 10 Clear CLR 74 60     62%   74 29.99 29.97      
May 15 09:53 SSW 8 10 Clear CLR 72 59     64%   72 30 29.98      
May 15 08:53 S 6 10 Clear CLR 68 58     70%     29.99 29.96      
May 15 07:53 Calm 10 Clear CLR 62 57     84%     29.98 29.96      
May 15 06:53 Calm 10 Clear CLR 58 55     90%     29.97 29.95      
May 15 05:53 Calm 10 Clear CLR 55 53     93%     29.97 29.94      
May 15 04:53 Calm 10 Clear CLR 55 53     93%     29.96 29.93      
May 15 03:53 Calm 10 Clear CLR 58 53     84%     29.95 29.93      
May 15 02:53 S 3 10 Clear CLR 59 53     81%     29.94 29.92      
May 15 01:53 S 6 10 Clear CLR 60 53     78%     29.95 29.93      
May 14 23:53 S 3 10 Clear CLR 62 54     75%     29.94 29.92      
May 14 22:53 SW 3 10 Clear CLR 64 54     70%     29.94 29.92      
May 14 19:53 SSW 6 10 Clear CLR 71 54     55%   70 29.9 29.88      
May 14 18:53 S 6 10 Clear CLR 76 52     43%   75 29.9 29.88      
May 14 17:53 SSW 8 10 Clear CLR 78 51     39%   77 29.92 29.9      
May 14 16:53 SW 7 10 Clear CLR 79 52     39%   78 29.93 29.91      
May 14 15:53 SW 6 10 Clear CLR 78 51     39%   77 29.94 29.92      
May 14 14:53 5 10 Clear CLR 77 52     42%   76 29.96 29.94      
May 14 13:53 Calm 10 Clear CLR 76 54     47%   75 29.98 29.96      
May 14 12:53 6 10 Clear CLR 74 52     46%   73 30 29.98      
May 14 11:53 7 10 Clear CLR 72 53     51%   71 30.02 30      
May 14 10:53 7 10 Clear CLR 70 54     57%     30.03 30.01      
May 14 09:53 WSW 6 10 Clear CLR 67 54     63%     30.04 30.02      
May 14 08:53 SSW 3 10 Clear CLR 63 53     70%     30.03 30.01      
May 14 07:53 SW 3 10 Clear CLR 59 53     81%     30.02 30      
May 14 06:53 Calm 10 Clear CLR 54 52     93%     30.01 29.99      
May 14 05:53 Calm 10 Clear CLR 51 49     92%     29.99 29.97      
May 14 04:53 Calm 10 Clear CLR 53 50     89%     29.97 29.95      
May 14 03:53 Calm 10 Clear CLR 53 50     89%     29.95 29.93      
May 14 02:53 Calm 10 Clear CLR 54 50     86%     29.94 29.93      
May 14 00:53 SW 3 10 Clear CLR 56 51     84%     29.95 29.93      
May 13 23:53 Calm 10 Clear CLR 59 51     75%     29.94 29.92      
May 13 22:53 SW 3 10 Clear CLR 61 51     70%     29.94 29.92      
May 13 21:53 Calm 10 Clear CLR 63 51     65%     29.93 29.91      
May 13 20:53 Calm 10 Clear CLR 64 52     65%     29.93 29.91      
May 13 19:53 Calm 10 Clear CLR 68 51     55%     29.92 29.91      
May 13 18:53 SE 3 10 Clear CLR 74 49     41%   73 29.92 29.91